| time (UTC) | temp F | wind direction | speed MPH | gust MPH | rain 1hr in | rain 24hr in | rain mn in | humidity % | barometer mb |
| 20260507093515 | 32 | 0.0 | 0.0 | 0.00 | 0.00 | 0.00 | 78 | 917.5 | |
| 20260507092516 | 32 | 0.0 | 0.0 | 0.00 | 0.00 | 0.00 | 78 | 917.5 | |
| 20260507091515 | 33 | 0.0 | 0.0 | 0.00 | 0.00 | 0.00 | 77 | 917.5 | |
| 20260507090515 | 33 | 0.0 | 1.0 | 0.00 | 0.00 | 0.00 | 77 | 917.6 | |
| 20260507085515 | 33 | 0.0 | 0.0 | 0.00 | 0.00 | 0.00 | 76 | 917.6 | |
| 20260507084536 | 33 | 0.0 | 0.0 | 0.00 | 0.00 | 0.00 | 75 | 917.5 | |
| 20260507083515 | 34 | 0.0 | 0.0 | 0.00 | 0.00 | 0.00 | 75 | 917.5 | |
| 20260507082515 | 34 | 0.0 | 1.0 | 0.00 | 0.00 | 0.00 | 75 | 917.6 | |
| 20260507081517 | 34 | 0.0 | 0.0 | 0.00 | 0.00 | 0.00 | 74 | 917.5 | |
| 20260507080517 | 35 | 0.0 | 2.0 | 0.00 | 0.00 | 0.00 | 73 | 917.6 | |
| 20260507075517 | 35 | 0.0 | 0.0 | 0.00 | 0.00 | 0.00 | 71 | 917.6 | |
| 20260507074517 | 36 | 0.0 | 0.0 | 0.00 | 0.00 | 0.00 | 70 | 917.6 | |
| 20260507073518 | 36 | 0.0 | 0.0 | 0.00 | 0.00 | 0.00 | 69 | 917.6 | |
| 20260507072517 | 36 | 0.0 | 0.0 | 0.00 | 0.00 | 0.00 | 69 | 917.6 | |
| 20260507071517 | 37 | 0.0 | 0.0 | 0.00 | 0.00 | 0.00 | 68 | 917.6 | |
| 20260507070518 | 37 | 0.0 | 0.0 | 0.00 | 0.00 | 0.00 | 68 | 917.6 | |
| 20260507065517 | 38 | 0.0 | 0.0 | 0.00 | 0.00 | 0.00 | 67 | 917.7 | |
| 20260507064517 | 39 | 0.0 | 0.0 | 0.00 | 0.00 | 0.00 | 66 | 1090.3 | |
| 20260507063517 | 39 | 0.0 | 0.0 | 0.00 | 0.00 | 0.00 | 66 | 1090.3 | |
| 20260507062517 | 40 | 0.0 | 0.0 | 0.00 | 0.00 | 0.00 | 65 | 1090.3 | |
| 20260507061517 | 40 | 0.0 | 0.0 | 0.00 | 0.00 | 0.00 | 65 | 1090.3 | |
| 20260507060517 | 41 | 0.0 | 0.0 | 0.00 | 0.00 | 0.00 | 65 | 1090.3 | |
| 20260507055517 | 41 | 0.0 | 0.0 | 0.00 | 0.00 | 0.00 | 65 | 1090.4 | |
| 20260507054557 | 41 | 0.0 | 0.0 | 0.00 | 0.00 | 0.00 | 65 | 1090.4 | |
| 20260507053516 | 41 | 0.0 | 0.0 | 0.00 | 0.00 | 0.00 | 65 | 1090.4 | |
| 20260507052537 | 41 | 0.0 | 0.0 | 0.00 | 0.00 | 0.00 | 65 | 1090.4 | |
| 20260507051517 | 41 | 0.0 | 0.0 | 0.00 | 0.00 | 0.00 | 64 | 1090.4 | |
| 20260507050517 | 41 | 0.0 | 0.0 | 0.00 | 0.00 | 0.00 | 63 | 1090.3 | |
| 20260507045517 | 41 | 0.0 | 0.0 | 0.00 | 0.00 | 0.00 | 64 | 1090.3 | |
| 20260507044516 | 41 | 0.0 | 0.0 | 0.00 | 0.00 | 0.00 | 64 | 1090.3 | |
| 20260507043536 | 41 | 0.0 | 0.0 | 0.00 | 0.00 | 0.00 | 64 | 1090.3 | |
| 20260507042557 | 41 | 0.0 | 0.0 | 0.00 | 0.00 | 0.00 | 63 | 1017.3 | |
| 20260507041517 | 41 | 0.0 | 0.0 | 0.00 | 0.00 | 0.00 | 62 | 1017.3 | |
| 20260507040516 | 41 | 0.0 | 0.0 | 0.00 | 0.00 | 0.00 | 62 | 1017.3 | |
| 20260507035515 | 41 | 0.0 | 0.0 | 0.00 | 0.00 | 0.00 | 61 | 1017.3 | |
| 20260507034517 | 41 | 0.0 | 0.0 | 0.00 | 0.00 | 0.00 | 61 | 1017.3 | |
| 20260507033515 | 41 | 0.0 | 0.0 | 0.00 | 0.00 | 0.00 | 61 | 1017.3 | |
| 20260507032516 | 41 | 0.0 | 0.0 | 0.00 | 0.00 | 0.00 | 59 | 1017.3 | |
| 20260507031515 | 41 | 0.0 | 0.0 | 0.00 | 0.00 | 0.00 | 58 | 1017.3 | |
| 20260507030515 | 41 | 0.0 | 0.0 | 0.00 | 0.00 | 0.00 | 57 | 1017.3 | |
| 20260507030016 | 41 | 0.0 | 0.0 | 0.00 | 0.00 | 0.00 | 57 | 1017.3 | |
| 20260507025017 | 42 | 0.0 | 0.0 | 0.00 | 0.00 | 0.00 | 57 | 1017.3 | |
| 20260507024016 | 42 | 0.0 | 0.0 | 0.00 | 0.00 | 0.00 | 54 | 1017.3 | |
| 20260507023016 | 43 | 0.0 | 0.0 | 0.00 | 0.00 | 0.00 | 53 | 1017.3 | |
| 20260507022037 | 43 | 0.0 | 0.0 | 0.00 | 0.00 | 0.00 | 53 | 1017.3 | |
| 20260507021017 | 43 | 0.0 | 0.0 | 0.00 | 0.00 | 0.00 | 52 | ||
| 20260507020016 | 44 | 0.0 | 0.0 | 0.00 | 0.00 | 0.00 | 51 | ||
| 20260507015016 | 44 | 0.0 | 0.0 | 0.00 | 0.00 | 0.00 | 49 | ||
| 20260507014016 | 45 | 0.0 | 0.0 | 0.00 | 0.00 | 0.00 | 49 | ||
| 20260507013016 | 45 | 0.0 | 2.0 | 0.00 | 0.00 | 0.00 | 48 | ||
| 20260507012016 | 45 | 68 | 1.0 | 3.0 | 0.00 | 0.00 | 0.00 | 47 | |
| 20260507010017 | 46 | 90 | 1.0 | 3.0 | 0.00 | 0.00 | 0.00 | 46 | |
| 20260507005016 | 46 | 90 | 2.0 | 6.0 | 0.00 | 0.00 | 0.00 | 46 | |
| 20260507004016 | 46 | 68 | 2.0 | 4.0 | 0.00 | 0.00 | 0.00 | 46 | |
| 20260507003016 | 47 | 45 | 2.0 | 8.0 | 0.00 | 0.00 | 0.00 | 46 | |
| 20260507002017 | 47 | 68 | 4.0 | 9.0 | 0.00 | 0.00 | 0.00 | 46 | |
| 20260507001017 | 47 | 68 | 3.0 | 9.0 | 0.00 | 0.00 | 0.00 | 46 | |
| 20260507000016 | 47 | 90 | 2.0 | 8.0 | 0.00 | 0.00 | 0.00 | 46 | |
| 20260506235016 | 47 | 90 | 2.0 | 8.0 | 0.00 | 0.00 | 0.00 | 45 | |
| 20260506234016 | 47 | 90 | 2.0 | 8.0 | 0.00 | 0.00 | 0.00 | 45 | |
| 20260506233015 | 47 | 113 | 2.0 | 6.0 | 0.00 | 0.00 | 0.00 | 45 | |
| 20260506232036 | 48 | 68 | 3.0 | 8.0 | 0.00 | 0.00 | 0.00 | 45 | |
| 20260506231016 | 48 | 68 | 3.0 | 8.0 | 0.00 | 0.00 | 0.00 | 45 | |
| 20260506230036 | 47 | 135 | 2.0 | 4.0 | 0.00 | 0.00 | 0.00 | 46 | |
| 20260506225015 | 47 | 68 | 3.0 | 7.0 | 0.00 | 0.00 | 0.00 | 45 | |
| 20260506224015 | 47 | 135 | 2.0 | 8.0 | 0.00 | 0.00 | 0.00 | 46 | |
| 20260506223056 | 47 | 90 | 3.0 | 7.0 | 0.00 | 0.00 | 0.00 | 46 | |
| 20260506222015 | 47 | 113 | 4.0 | 8.0 | 0.00 | 0.00 | 0.00 | 46 | |
| 20260506221017 | 47 | 113 | 2.0 | 5.0 | 0.00 | 0.00 | 0.00 | 47 | |
| 20260506220018 | 47 | 68 | 4.0 | 13.0 | 0.00 | 0.00 | 0.00 | 47 | |
| 20260506215017 | 47 | 90 | 4.0 | 11.0 | 0.00 | 0.00 | 0.00 | 47 | |
| 20260506214017 | 47 | 68 | 2.0 | 6.0 | 0.00 | 0.00 | 0.00 | 48 | |
| 20260506213017 | 47 | 90 | 3.0 | 8.0 | 0.00 | 0.00 | 0.00 | 47 | |
| 20260506212018 | 47 | 90 | 3.0 | 7.0 | 0.00 | 0.00 | 0.00 | 50 | |
| 20260506211017 | 47 | 23 | 2.0 | 4.0 | 0.00 | 0.00 | 0.00 | 50 | |
| 20260506210017 | 47 | 90 | 3.0 | 8.0 | 0.00 | 0.00 | 0.00 | 49 | |
| 20260506205018 | 47 | 68 | 4.0 | 10.0 | 0.00 | 0.00 | 0.00 | 50 | |
| 20260506204017 | 46 | 68 | 3.0 | 8.0 | 0.00 | 0.00 | 0.00 | 50 | |
| 20260506203017 | 46 | 90 | 2.0 | 4.0 | 0.00 | 0.00 | 0.00 | 52 | |
| 20260506202018 | 46 | 90 | 3.0 | 8.0 | 0.00 | 0.00 | 0.00 | 50 | |
| 20260506201017 | 46 | 90 | 3.0 | 8.0 | 0.00 | 0.00 | 0.00 | 51 | |
| 20260506200017 | 45 | 90 | 3.0 | 7.0 | 0.00 | 0.00 | 0.00 | 50 | |
| 20260506195018 | 45 | 90 | 3.0 | 10.0 | 0.00 | 0.00 | 0.00 | 51 | |
| 20260506194017 | 45 | 90 | 3.0 | 8.0 | 0.00 | 0.00 | 0.00 | 50 | |
| 20260506193017 | 45 | 0 | 2.0 | 7.0 | 0.00 | 0.00 | 0.00 | 52 | |
| 20260506192016 | 44 | 90 | 3.0 | 7.0 | 0.00 | 0.00 | 0.00 | 51 | |
| 20260506191017 | 44 | 45 | 4.0 | 10.0 | 0.00 | 0.00 | 0.00 | 51 | |
| 20260506190019 | 44 | 90 | 3.0 | 10.0 | 0.00 | 0.00 | 0.00 | 52 | |
| 20260506185016 | 44 | 45 | 3.0 | 10.0 | 0.00 | 0.00 | 0.00 | 51 | |
| 20260506184017 | 44 | 68 | 4.0 | 8.0 | 0.00 | 0.00 | 0.00 | 51 | |
| 20260506183017 | 44 | 113 | 4.0 | 11.0 | 0.00 | 0.00 | 0.00 | 50 | |
| 20260506182016 | 44 | 90 | 3.0 | 9.0 | 0.00 | 0.00 | 0.00 | 49 | |
| 20260506181017 | 45 | 68 | 3.0 | 8.0 | 0.00 | 0.00 | 0.00 | 48 | |
| 20260506180016 | 45 | 90 | 3.0 | 8.0 | 0.00 | 0.00 | 0.00 | 50 | |
| 20260506175016 | 44 | 113 | 2.0 | 6.0 | 0.00 | 0.00 | 0.00 | 49 | |
| 20260506174017 | 45 | 90 | 4.0 | 10.0 | 0.00 | 0.00 | 0.00 | 50 | |
| 20260506173037 | 44 | 68 | 4.0 | 9.0 | 0.00 | 0.00 | 0.00 | 50 | |
| 20260506172016 | 44 | 135 | 3.0 | 7.0 | 0.00 | 0.00 | 0.00 | 51 | |
| 20260506171017 | 44 | 68 | 3.0 | 9.0 | 0.00 | 0.00 | 0.00 | 51 | |
| 20260506170016 | 43 | 90 | 4.0 | 13.0 | 0.00 | 0.00 | 0.00 | 51 | |
| 20260506165016 | 43 | 315 | 3.0 | 10.0 | 0.00 | 0.00 | 0.00 | 52 | |
| 20260506164016 | 43 | 45 | 4.0 | 16.0 | 0.00 | 0.00 | 0.00 | 51 | |
| 20260506163017 | 42 | 90 | 3.0 | 8.0 | 0.00 | 0.00 | 0.00 | 52 | |
| 20260506162016 | 42 | 45 | 5.0 | 12.0 | 0.00 | 0.00 | 0.00 | 52 | |
| 20260506161016 | 42 | 113 | 4.0 | 14.0 | 0.00 | 0.00 | 0.00 | 52 | |
| 20260506160016 | 42 | 68 | 5.0 | 11.0 | 0.00 | 0.00 | 0.00 | 52 | |
| 20260506155016 | 42 | 113 | 3.0 | 7.0 | 0.00 | 0.00 | 0.00 | 52 | |
| 20260506154015 | 42 | 113 | 2.0 | 4.0 | 0.00 | 0.00 | 0.00 | 55 | |
| 20260506153037 | 42 | 45 | 3.0 | 8.0 | 0.00 | 0.00 | 0.00 | 55 | |
| 20260506152016 | 42 | 68 | 3.0 | 9.0 | 0.00 | 0.00 | 0.00 | 56 | |
| 20260506151016 | 41 | 113 | 2.0 | 4.0 | 0.00 | 0.00 | 0.00 | 56 | |
| 20260506150016 | 41 | 45 | 3.0 | 7.0 | 0.00 | 0.00 | 0.00 | 55 | |
| 20260506145016 | 41 | 90 | 3.0 | 9.0 | 0.00 | 0.00 | 0.00 | 55 | 1089.6 |
| 20260506144015 | 41 | 90 | 3.0 | 6.0 | 0.00 | 0.00 | 0.00 | 56 | 1089.6 |
| 20260506143015 | 40 | 90 | 2.0 | 7.0 | 0.00 | 0.00 | 0.00 | 56 | 1089.6 |
| 20260506142016 | 40 | 113 | 3.0 | 9.0 | 0.00 | 0.00 | 0.00 | 57 | 1089.6 |
| 20260506141015 | 40 | 90 | 3.0 | 7.0 | 0.00 | 0.00 | 0.00 | 56 | 1089.6 |
| 20260506140015 | 40 | 68 | 4.0 | 8.0 | 0.00 | 0.00 | 0.00 | 57 | 1089.6 |
| 20260506135018 | 40 | 113 | 2.0 | 5.0 | 0.00 | 0.00 | 0.00 | 59 | 1089.6 |
| 20260506134017 | 40 | 113 | 3.0 | 6.0 | 0.00 | 0.00 | 0.00 | 58 | 1089.6 |
| 20260506133017 | 40 | 68 | 3.0 | 6.0 | 0.00 | 0.00 | 0.00 | 58 | 1089.6 |
| 20260506132017 | 40 | 45 | 3.0 | 7.0 | 0.00 | 0.00 | 0.00 | 59 | 1089.6 |
| 20260506131017 | 39 | 68 | 3.0 | 8.0 | 0.00 | 0.00 | 0.00 | 61 | 1089.6 |
| 20260506130017 | 39 | 90 | 2.0 | 5.0 | 0.00 | 0.00 | 0.00 | 63 | 1089.6 |
| 20260506125038 | 38 | 45 | 2.0 | 4.0 | 0.00 | 0.00 | 0.00 | 66 | 1089.6 |
| 20260506124018 | 37 | 90 | 3.0 | 7.0 | 0.00 | 0.00 | 0.00 | 69 | 1089.6 |
| 20260506123017 | 35 | 113 | 3.0 | 6.0 | 0.00 | 0.00 | 0.00 | 74 | 1089.6 |
| 20260506122017 | 34 | 45 | 1.0 | 4.0 | 0.00 | 0.00 | 0.00 | 79 | 1089.5 |
| 20260506121017 | 33 | 0.0 | 0.0 | 0.00 | 0.00 | 0.00 | 79 | 1089.5 | |
| 20260506120038 | 33 | 0.0 | 0.0 | 0.00 | 0.00 | 0.00 | 79 | 1089.5 | |
| 20260506115017 | 32 | 0.0 | 0.0 | 0.00 | 0.00 | 0.00 | 78 | 1089.4 | |
| 20260506114017 | 32 | 0.0 | 0.0 | 0.00 | 0.00 | 0.00 | 78 | 1089.4 | |
| 20260506113038 | 32 | 0.0 | 0.0 | 0.00 | 0.00 | 0.00 | 77 | 1089.4 | |
| 20260506112017 | 32 | 0.0 | 0.0 | 0.00 | 0.00 | 0.00 | 77 | 1089.5 | |
| 20260506111016 | 32 | 0.0 | 1.0 | 0.00 | 0.00 | 0.00 | 76 | 1089.5 | |
| 20260506110017 | 32 | 0.0 | 0.0 | 0.00 | 0.00 | 0.00 | 75 | 1089.5 | |
| 20260506105017 | 32 | 0.0 | 0.0 | 0.00 | 0.00 | 0.00 | 74 | 1089.5 | |
| 20260506104016 | 32 | 0.0 | 0.0 | 0.00 | 0.00 | 0.00 | 72 | 1089.5 | |
| 20260506103016 | 33 | 0.0 | 0.0 | 0.00 | 0.00 | 0.00 | 70 | 1089.5 | |
| 20260506102016 | 33 | 0.0 | 0.0 | 0.00 | 0.00 | 0.00 | 69 | 1089.5 | |
| 20260506101016 | 33 | 0.0 | 0.0 | 0.00 | 0.00 | 0.00 | 69 | 1089.5 | |
| 20260506100016 | 33 | 0.0 | 0.0 | 0.00 | 0.00 | 0.00 | 68 | 1089.5 | |
| 20260506095016 | 33 | 0.0 | 0.0 | 0.00 | 0.00 | 0.00 | 67 | 1089.5 | |
| 20260506094016 | 34 | 0.0 | 0.0 | 0.00 | 0.00 | 0.00 | 67 | 1089.6 |